Theta_e
308 308 309 309 311 313 315 317 317 317 317 318 317 317 316 315 317 330 333 342 342 339 352 360 362 358 355 359 353 354 355 347 350 352 353 349 349 349 347 347 348 347 346 343 341
306 307 307 307 308 312 315 316 317 317 317 317 317 317 316 315 323 329 333 328 327 338 358 357 355 350 356 355 354 347 346 348 350 351 351 348 348 349 348 347 347 347 344 341 341
305 305 305 306 306 310 314 315 316 317 318 318 317 317 316 315 333 334 334 327 325 332 352 353 345 344 349 350 344 347 349 347 349 349 350 352 350 347 348 350 347 347 345 343 343
305 305 305 306 307 308 311 314 317 317 318 318 317 317 316 323 334 338 324 325 324 340 351 347 342 345 346 351 345 349 348 349 350 350 351 352 349 350 352 350 345 344 344 344 344
304 305 306 306 307 308 309 313 316 317 318 318 318 318 319 333 329 328 323 327 334 346 348 347 339 341 349 348 347 352 349 349 351 350 350 351 352 349 350 348 345 344 344 344 343
304 305 306 307 308 308 309 311 316 318 318 320 320 318 330 329 329 338 344 341 343 345 345 345 340 340 343 349 349 346 350 350 351 352 352 355 353 353 349 348 347 345 346 345 344
305 306 307 308 309 310 310 313 316 318 322 322 321 319 326 327 326 331 339 341 342 343 344 343 339 341 341 348 349 351 358 348 349 352 351 343 349 357 347 348 348 346 346 346 345
306 307 309 311 312 312 312 315 317 322 323 321 317 327 327 325 325 326 327 329 334 341 340 339 338 338 339 347 349 349 353 355 351 351 349 343 352 347 347 348 348 347 347 347 346
308 311 314 315 314 313 314 317 321 322 321 318 322 327 326 324 325 324 327 329 330 331 333 336 337 337 339 343 355 356 358 355 355 349 354 358 360 352 348 348 349 348 347 347 346
313 315 316 316 315 314 317 320 322 323 327 327 328 328 327 326 326 325 325 326 329 332 333 334 337 337 339 341 364 357 358 353 353 344 343 347 361 357 350 349 350 348 348 347 346
315 316 317 316 315 315 319 327 330 330 328 328 328 324 326 325 326 326 326 327 328 330 332 335 337 337 338 342 350 347 354 355 352 341 342 344 346 359 355 350 350 349 348 347 346
316 317 317 316 315 317 318 329 327 326 328 328 327 327 326 326 326 326 326 326 326 328 332 334 336 336 337 338 350 348 350 351 343 342 341 341 342 354 358 355 351 350 349 348 346
318 317 317 316 319 320 326 326 325 325 328 328 326 324 325 325 325 326 327 327 326 326 328 331 333 336 337 336 338 341 340 341 342 343 341 341 344 345 346 355 353 350 349 348 348
319 318 317 317 321 327 328 325 325 325 333 327 325 326 326 325 324 326 328 327 326 325 327 329 331 333 335 336 337 339 338 339 341 342 343 340 343 350 349 348 354 353 351 350 349
320 319 316 317 319 329 329 325 324 326 337 327 327 327 327 325 326 325 327 327 326 326 326 327 328 330 332 334 335 337 336 337 338 339 339 339 339 351 353 357 360 354 353 351 353
321 319 317 324 322 327 325 325 326 330 334 328 327 327 326 325 326 326 325 326 327 325 327 327 328 328 329 330 332 332 333 335 335 337 340 338 338 342 350 356 348 349 351 353 352
321 321 319 321 329 326 325 328 334 334 330 329 328 327 327 326 325 325 325 325 324 325 325 326 326 327 328 327 328 329 330 332 334 336 338 336 337 338 345 343 345 349 352 353 352
323 323 325 324 326 326 326 333 339 330 328 328 327 327 328 328 328 325 326 325 325 325 325 325 326 327 327 326 326 326 328 329 335 332 333 335 336 339 344 342 342 349 352 350 350
324 326 327 330 328 325 330 335 335 331 329 328 328 329 329 328 327 326 326 330 329 331 330 328 326 328 328 328 327 326 326 327 327 328 328 329 332 338 343 343 340 337 341 340 347
325 332 332 326 327 329 335 327 331 328 328 328 330 330 331 329 328 329 330 331 331 331 330 329 328 327 328 328 327 326 327 325 326 330 330 328 332 332 346 344 340 337 336 343 341
327 337 328 327 329 334 338 333 330 328 329 330 329 330 328 329 329 330 332 332 331 330 330 330 329 329 330 328 326 327 325 325 325 326 329 329 329 332 342 341 341 338 340 342 342
334 337 328 329 335 332 334 332 323 331 327 328 326 328 329 330 330 331 331 334 331 331 329 331 332 332 330 331 330 329 326 326 327 327 326 327 329 330 333 335 336 339 337 341 344
336 330 327 329 336 333 330 329 330 332 330 331 331 329 330 329 331 330 330 330 330 330 333 332 331 329 329 331 332 333 333 333 327 327 329 327 327 331 333 333 335 337 337 348 347
332 333 331 329 328 329 331 332 331 330 328 329 331 331 331 332 332 332 329 330 331 331 335 329 329 327 327 329 330 332 332 332 333 329 328 327 328 331 331 332 339 340 346 344 346
327 326 321 329 328 327 328 329 330 329 331 329 329 332 330 331 332 331 331 331 331 339 330 330 331 330 330 330 330 330 331 332 332 331 332 332 331 333 331 331 336 339 341 344 346
326 324 324 326 324 324 321 326 328 328 329 328 331 329 329 328 328 328 329 330 330 329 327 328 331 329 328 328 330 330 328 328 329 331 330 330 331 332 331 333 336 336 342 349 350
322 324 327 325 326 325 325 328 327 325 324 325 326 327 326 324 322 323 323 322 322 322 324 325 325 325 324 326 329 330 330 330 330 330 329 330 331 335 332 334 338 341 347 351 354
Wind_Speed
14 14 15 15 16 16 16 17 17 18 19 21 20 21 22 24 21 11 9 7 4 7 9 11 18 20 15 13 7 14 4 10 14 13 9 5 9 11 12 11 13 14 18 24 31
16 16 16 16 16 16 16 17 17 19 19 20 20 21 23 26 17 18 11 7 5 8 9 17 15 12 9 10 10 2 10 12 18 15 10 11 9 9 9 11 10 7 25 31 32
17 18 18 18 17 16 16 17 18 18 19 19 20 21 22 23 9 11 10 6 7 10 15 21 17 14 15 8 13 12 11 10 14 12 11 14 10 10 12 13 12 22 26 26 26
19 20 19 19 18 18 17 17 18 19 19 19 19 21 22 6 7 5 3 4 7 10 12 19 15 13 9 16 7 8 11 11 10 10 6 10 8 12 6 9 16 22 24 25 25
20 20 20 19 19 19 18 17 17 18 19 19 18 18 11 8 17 4 3 6 10 11 15 16 17 17 11 6 9 8 3 12 10 9 9 7 4 8 7 5 18 23 22 23 21
22 21 20 20 19 19 19 18 17 18 18 17 14 12 6 15 4 5 6 8 12 16 15 19 15 16 3 5 14 11 3 8 11 8 10 10 7 4 10 10 18 23 21 21 20
23 21 21 19 19 19 19 17 17 17 16 11 9 5 11 16 3 5 9 10 13 19 17 22 18 14 17 9 14 28 24 36 19 10 8 23 21 14 11 12 17 18 19 19 19
23 23 21 20 19 18 18 16 16 13 9 6 5 3 8 4 6 10 13 13 14 18 20 21 20 17 18 15 13 20 13 8 21 13 14 18 14 23 11 14 16 18 18 18 18
24 23 22 19 17 17 16 15 14 7 5 5 5 9 15 7 11 15 16 16 16 17 18 19 16 16 22 17 11 16 12 16 14 16 18 13 15 28 15 14 15 17 18 17 17
24 23 19 15 14 16 15 13 10 9 8 7 14 9 16 14 12 8 11 13 13 14 15 17 15 14 17 17 6 10 6 20 24 9 3 9 16 18 17 16 15 17 17 16 17
26 20 15 13 11 14 16 5 4 6 12 11 7 17 3 3 3 10 14 14 14 16 16 17 15 15 22 10 21 28 28 32 31 6 5 7 2 21 19 17 17 17 17 17 17
22 16 12 10 10 11 12 6 8 8 9 19 13 10 10 5 10 13 18 15 16 18 19 17 19 20 21 20 25 19 24 29 4 8 7 8 8 15 20 17 18 18 18 18 18
19 13 10 9 7 8 12 7 8 8 6 11 10 13 12 12 13 14 15 15 17 18 20 21 21 21 21 18 21 16 13 13 12 8 10 10 3 13 4 9 17 17 18 17 18
15 12 8 6 7 5 4 4 8 5 5 9 9 5 5 9 16 19 8 14 15 19 19 20 20 23 23 19 16 16 16 15 5 11 11 11 14 8 17 18 15 17 19 18 18
13 10 7 6 13 7 6 8 8 7 4 4 9 6 3 10 9 16 10 10 15 16 15 17 20 21 17 20 15 18 17 19 20 9 16 19 14 16 18 20 27 14 17 20 18
11 8 5 7 8 8 8 9 7 6 2 7 4 8 12 11 12 8 9 12 13 16 18 18 21 13 12 15 12 16 20 20 17 14 13 17 18 6 9 15 10 5 23 19 23
10 8 7 9 7 10 9 8 6 6 3 3 1 6 9 10 9 6 11 13 13 10 14 13 16 19 9 16 18 16 15 12 14 13 14 19 16 16 15 11 16 29 31 23 21
12 12 11 15 11 10 10 8 10 5 8 3 4 5 6 4 5 5 10 10 16 18 16 14 13 20 16 18 17 18 16 12 15 14 16 19 17 7 11 4 18 34 27 20 19
16 14 10 8 8 5 7 8 6 10 5 10 6 10 7 5 8 5 7 13 7 13 10 14 17 17 7 10 11 14 16 19 21 19 14 16 21 9 15 20 38 3 16 13 17
10 15 17 3 5 8 8 5 4 5 8 7 13 5 13 7 7 5 7 7 6 7 9 13 14 14 14 5 10 16 16 15 12 17 17 16 18 14 12 14 11 8 8 14 8
7 5 6 4 7 7 9 5 2 4 8 7 9 7 7 7 7 13 7 8 6 11 14 13 13 13 13 14 10 13 14 14 16 14 12 11 12 15 12 4 8 6 13 9 9
11 5 7 5 9 6 5 7 2 4 2 5 5 8 9 7 9 9 4 8 7 10 12 14 9 11 17 15 11 16 16 16 11 17 15 14 15 18 7 4 4 6 7 10 9
5 4 4 8 7 2 5 4 6 7 2 4 4 1 8 8 4 10 8 6 4 9 11 12 9 10 11 6 18 11 15 19 18 16 14 12 12 13 9 7 8 7 4 10 8
5 4 4 4 4 10 3 4 4 5 9 5 9 7 9 8 8 4 11 4 6 3 7 4 13 16 14 21 14 10 16 18 19 10 13 14 15 14 15 14 11 8 10 8 6
3 6 6 6 7 12 9 10 9 5 5 2 6 6 7 8 13 12 11 9 6 12 4 8 13 15 17 17 18 19 17 21 20 18 16 19 18 16 16 16 8 10 9 8 7
6 5 8 11 9 6 5 9 6 7 4 10 2 10 8 8 12 14 15 14 13 13 13 14 13 13 15 18 19 18 17 19 21 23 23 20 21 17 14 12 6 5 7 10 10
15 11 6 9 10 7 5 11 7 8 10 7 10 10 10 11 13 14 16 18 18 17 16 16 12 12 15 17 17 15 16 17 18 18 21 18 20 15 5 7 4 4 5 6 8
Wind_Direction
343 341 338 338 334 332 329 328 330 330 330 330 332 331 330 327 319 293 253 127 211 178 183 197 228 238 227 237 257 244 326 72 80 101 130 146 121 72 84 128 150 176 149 154 154
339 337 335 333 331 327 324 323 324 325 326 327 329 328 328 330 315 269 241 232 223 196 195 233 237 231 257 296 260 52 62 28 106 117 130 137 128 116 135 150 137 163 135 147 157
337 333 331 330 328 323 319 318 319 320 322 324 326 325 325 329 277 243 208 219 226 221 239 290 295 273 284 231 21 356 103 82 67 110 110 111 142 160 162 156 167 135 143 153 163
335 330 327 325 323 320 317 313 314 316 318 320 322 321 322 305 250 97 183 210 207 216 256 279 268 261 347 42 29 359 79 93 114 112 137 115 155 160 177 123 140 145 153 160 173
334 330 327 322 318 316 316 312 311 311 313 316 318 321 335 240 256 152 210 209 195 214 248 276 294 294 106 139 34 269 190 107 117 155 112 140 62 113 108 137 141 149 161 167 176
332 328 324 319 317 315 313 311 307 309 310 311 312 315 271 261 73 147 154 175 213 219 252 264 272 310 271 200 197 237 61 102 165 133 140 96 7 219 134 178 148 157 169 174 182
331 326 321 317 316 313 313 309 309 309 306 304 297 309 267 257 289 210 205 224 231 239 245 267 302 309 306 170 215 72 32 351 314 175 65 64 341 316 147 183 155 168 174 179 185
329 325 320 317 315 313 310 307 308 306 300 286 266 244 266 4 241 233 234 240 241 244 261 277 298 305 284 180 240 79 107 168 272 258 121 89 269 270 174 175 167 171 178 182 186
330 325 321 317 315 314 307 306 304 285 289 270 269 228 264 183 232 236 234 243 249 239 252 270 274 282 287 273 58 43 320 278 274 240 166 161 208 245 172 182 174 177 181 185 186
331 326 325 320 318 312 304 302 285 268 270 254 266 265 246 233 221 213 225 243 259 265 239 243 256 265 264 261 137 131 322 295 274 148 210 213 165 162 177 179 181 183 182 188 186
331 327 328 323 317 306 313 303 207 201 230 232 250 228 113 314 313 231 248 235 241 256 252 243 245 251 260 283 143 165 186 226 253 136 229 319 241 165 173 183 184 184 189 186 194
337 334 327 319 306 293 303 264 35 332 298 218 254 270 300 311 283 215 212 222 222 239 247 250 248 246 268 277 160 173 231 234 43 15 240 275 291 132 166 190 191 191 187 189 189
344 342 330 315 287 270 242 8 327 322 261 194 218 226 229 216 250 249 197 223 237 229 244 251 250 251 245 281 277 288 288 304 330 335 288 321 229 194 6 216 201 190 190 193 186
344 342 331 319 297 239 238 339 328 332 273 141 191 157 204 232 241 255 180 228 225 251 231 250 262 263 275 245 278 287 295 301 354 302 293 282 289 103 157 253 193 203 187 191 194
346 339 324 290 306 288 357 320 329 260 248 147 124 122 215 226 26 198 208 254 257 248 250 262 246 261 267 271 284 286 286 291 302 278 297 290 287 143 129 108 262 211 200 192 186
343 342 307 290 258 281 317 312 266 237 82 126 157 196 198 203 242 112 209 233 268 254 275 259 272 298 283 281 294 281 280 289 291 284 276 276 278 199 151 176 143 199 241 224 186
332 312 288 279 319 333 315 269 238 269 189 96 100 220 243 157 208 212 201 220 231 224 246 246 251 267 264 285 278 275 264 263 256 256 256 257 255 268 152 173 181 193 219 224 187
303 290 282 253 281 305 292 262 269 12 36 107 267 235 319 359 197 212 222 221 217 256 272 285 246 221 205 227 259 271 257 255 260 260 269 274 272 338 136 14 295 193 209 174 180
303 285 250 259 234 282 277 260 2 10 3 331 217 244 152 178 298 210 249 19 31 12 339 312 288 307 252 218 216 253 259 279 286 285 274 282 292 206 94 72 295 308 163 165 175
317 283 240 266 229 249 271 325 43 350 295 277 313 353 331 89 272 258 139 75 14 39 326 295 297 296 308 278 244 272 289 288 269 262 271 286 292 299 145 188 236 194 119 131 143
275 243 94 235 249 250 268 56 17 76 325 326 350 322 299 340 315 325 70 102 58 337 326 301 291 289 273 251 270 251 225 244 269 280 290 286 258 248 42 78 347 66 66 99 134
294 278 110 256 269 245 41 12 9 17 163 317 280 325 328 354 311 326 347 58 56 344 311 338 321 300 299 308 271 233 259 271 248 239 261 278 289 301 4 314 112 294 67 79 19
284 339 138 267 285 259 93 170 305 338 8 339 323 300 1 308 338 286 300 51 47 317 20 349 309 319 296 29 348 354 347 332 283 294 287 282 273 288 341 29 16 357 22 108 99
280 295 151 228 310 303 6 271 253 133 296 325 329 318 286 285 267 257 294 286 146 269 94 314 277 280 285 307 318 317 304 305 315 289 288 281 294 314 330 355 17 67 72 56 51
271 18 6 305 35 344 335 335 301 287 160 302 299 242 334 327 314 307 325 314 332 134 268 270 273 277 295 309 308 301 293 287 288 294 296 299 305 305 314 328 47 38 22 27 12
347 348 346 302 299 272 235 287 306 327 9 293 302 312 7 313 311 315 322 313 305 310 302 278 283 297 292 283 271 270 269 272 282 285 284 280 281 284 286 291 59 8 26 23 358
1 339 295 294 287 292 12 7 351 356 300 271 331 326 306 338 341 313 300 291 284 282 279 286 287 291 287 294 297 287 281 275 282 258 263 275 279 328 256 286 349 324 67 40 345